Flag for U.S.A. Weather past 2 weeks in Sidney, Montana, U.S.A.

Now
43 °F

Clear.


Feels Like: 43 °F
Forecast: 41 / 74 °F
Wind: No wind

Location: Sidney-Richland

Current Time: May 22, 2015 at 2:48:35 AM

Latest Report: May 22, 2015 at 2:15 AM


Visibility: 10 mi

Pressure: 30.11 "Hg

Humidity: 76%

Dew point: 36 °F

Location of SidneyLocation

Historic Weather in Sidney — Graph

°F

Sidney temperature yesterday

Maximum temperature yesterday: 73 °F (at 2:15 PM)
Minimum temperature yesterday: 36 °F (at 4:35 AM)
Average temperature yesterday: 57 °F

Past Weeks' High & Low Weather Summary

 TemperatureHumidityPressure
High73 °F (May 21, 2:15 PM)94% (May 16, 10:55 AM)30.47 "Hg (May 16, 10:55 AM)
Low27 °F (May 19, 5:35 AM)19% (May 11, 11:35 AM)29.61 "Hg (May 16, 1:35 PM)
Average48 °F57%30.11 "Hg
* Reported May 7 1:15 AM — May 22 1:35 AM, Sidney, Weather by CustomWeather, © 2015

Note: Actual official high and low records may vary slightly from our data, if they occured in-between our weather recording intervals... More about our weather records

Advertising

Sidney weather history for previous 24 hours

 ConditionsComfort  
Time TempWeatherWind HumidityBarometerVisibility
1:35 AM
Fri, May 22
43 °FClear.No wind76%30.11 "Hg10 mi
1:15 AM43 °FClear.No wind71%30.11 "Hg10 mi
12:55 AM43 °FClear.No wind76%30.12 "Hg10 mi
12:35 AM46 °FClear.No wind62%30.11 "Hg10 mi
12:15 AM48 °FClear.No wind62%30.11 "Hg10 mi
11:55 PM
Thu, May 21
52 °FClear.No wind50%30.11 "Hg10 mi
11:35 PM54 °FClear.No wind47%30.11 "Hg10 mi
11:15 PM52 °FClear.No wind50%30.11 "Hg10 mi
10:55 PM54 °FClear.No wind47%30.10 "Hg10 mi
10:35 PM54 °FClear.No wind51%30.10 "Hg10 mi
10:15 PM55 °FClear.No wind47%30.10 "Hg10 mi
9:35 PM55 °FClear.No wind47%30.10 "Hg10 mi
9:15 PM61 °FSunny.No wind36%30.10 "Hg10 mi
8:55 PM61 °FSunny.No wind39%30.09 "Hg10 mi
8:35 PM63 °FSunny.No wind34%30.08 "Hg10 mi
8:15 PM64 °FSunny.5 mph34%30.08 "Hg10 mi
7:55 PM68 °FSunny.6 mph28%30.08 "Hg10 mi
7:35 PM70 °FSunny.8 mph29%30.08 "Hg10 mi
7:15 PM72 °FSunny.9 mph25%30.08 "Hg10 mi
6:55 PM72 °FSunny.9 mph25%30.08 "Hg10 mi
6:35 PM72 °FSunny.8 mph25%30.08 "Hg10 mi
6:15 PM73 °FSunny.8 mph23%30.08 "Hg10 mi
5:55 PM73 °FSunny.8 mph23%30.09 "Hg10 mi
5:35 PM73 °FSunny.12 mph23%30.10 "Hg10 mi
5:15 PM73 °FSunny.8 mph23%30.11 "Hg10 mi
4:55 PM73 °FSunny.9 mph23%30.11 "Hg10 mi
4:35 PM73 °FSunny.No wind23%30.12 "Hg10 mi
4:15 PM73 °FSunny.7 mph22%30.12 "Hg10 mi
3:55 PM73 °FSunny.7 mph23%30.13 "Hg10 mi
3:35 PM73 °FSunny.6 mph23%30.14 "Hg10 mi
3:15 PM73 °FSunny.9 mph25%30.14 "Hg10 mi
2:55 PM73 °FSunny.7 mph25%30.15 "Hg10 mi
2:35 PM73 °FSunny.No wind23%30.16 "Hg10 mi
2:15 PM73 °FSunny.12 mph25%30.17 "Hg10 mi
1:55 PM72 °FSunny.9 mph27%30.18 "Hg10 mi
1:35 PM72 °FSunny.No wind23%30.18 "Hg10 mi
1:15 PM70 °FSunny.5 mph23%30.19 "Hg10 mi
12:55 PM70 °FSunny.No wind21%30.19 "Hg10 mi
12:35 PM68 °FSunny.No wind24%30.20 "Hg10 mi
12:15 PM70 °FSunny.No wind25%30.20 "Hg10 mi
11:55 AM66 °FSunny.No wind26%30.21 "Hg10 mi
11:35 AM66 °FSunny.No wind26%30.22 "Hg10 mi
11:15 AM64 °FSunny.No wind28%30.22 "Hg10 mi
10:55 AM64 °FSunny.No wind32%30.22 "Hg10 mi
10:35 AM63 °FSunny.No wind37%30.22 "Hg10 mi
10:15 AM63 °FSunny.No wind42%30.23 "Hg9 mi
9:55 AM61 °FSunny.No wind45%30.23 "Hg10 mi
9:35 AM57 °FSunny.No wind51%30.23 "Hg10 mi
9:15 AM57 °FSunny.No wind51%30.24 "Hg10 mi
8:55 AM54 °FSunny.No wind54%30.24 "Hg10 mi
8:35 AM52 °FSunny.No wind62%30.24 "Hg10 mi
8:15 AM48 °FSunny.No wind66%30.24 "Hg10 mi
7:55 AM46 °FSunny.No wind71%30.24 "Hg10 mi
7:35 AM45 °FSunny.No wind76%30.24 "Hg10 mi
7:15 AM43 °FSunny.No wind76%30.24 "Hg10 mi
6:55 AM41 °FSunny.No wind81%30.24 "Hg10 mi
6:35 AM39 °FSunny.No wind81%30.24 "Hg10 mi
6:15 AM37 °FSunny.No wind81%30.24 "Hg10 mi
5:55 AM36 °FClear.No wind81%30.23 "Hg10 mi
5:35 AM36 °FClear.No wind75%30.22 "Hg10 mi
5:15 AM36 °FClear.No wind75%30.22 "Hg10 mi
4:55 AM37 °FClear.No wind75%30.22 "Hg10 mi
4:35 AM36 °FClear.No wind81%30.22 "Hg10 mi
4:15 AM37 °FClear.No wind75%30.22 "Hg10 mi
3:35 AM37 °FClear.No wind75%30.21 "Hg10 mi
3:15 AM37 °FClear.No wind75%30.21 "Hg10 mi
2:55 AM39 °FClear.No wind70%30.22 "Hg10 mi
2:15 AM39 °FClear.No wind81%30.21 "Hg10 mi
Weather by CustomWeather, © 2015

See weather overviewHow to use our weather pages